Meteo Giornale » Osservazioni meteo Italia » Cagliari-Elmas

ore: 23:50 - Osservazioni Meteo Cagliari-Elmas
Lat. 39° 15' N Lon. 9° 4' E Alt. 4 metri s.l.m.

nuvoloso Europe/Rome

14 °C

Nuvoloso

Temp. 24 Ore

11 °C

20 °C

Nord/NOvest

9.3 Km/h

Dew point 13 °C

Umidità 93 %

Visibilità  10 Km

Il sole sorge alle ore 07:07

Il sole tramonta alle ore 17:09

Data e Ora Cielo e Fenomeni T °C DP °C Um. % Pres. hPa Vis. km Vento km/h
Ieri h: 23:50 nuvoloso Nuvoloso 14 13 93 1018 10 N/NO 9.3
Ieri h: 23:20 coperto_pioggia Pioggia Debole 15 12 82 1018 10 NO 9.3
Ieri h: 22:50 nuvoloso Nuvoloso 15 11 76 1018 10 N 1.8
Ieri h: 22:20 coperto_pioggia Pioviggine Leggera 15 11 76 1018 10 N 5.5
Ieri h: 21:50 coperto_pioggia Pioviggine Leggera 15 11 76 1018 10 N 5.5
Ieri h: 21:20 coperto_pioggia Pioviggine Leggera 16 11 72 1018 10 E 14.8
Ieri h: 20:50 coperto_pioggia Pioviggine Leggera 16 11 72 1018 10 E 18.5
Ieri h: 20:20 nuvoloso Nuvoloso 17 11 67 1017 10 E 24
Ieri h: 19:50 nuvoloso Nuvoloso 17 12 72 1017 10 N 5.5
Ieri h: 19:20 nuvoloso Nuvoloso 17 11 67 1017 10 N 5.5
Ieri h: 18:20 poco_nuvoloso Poco Nuvoloso 17 13 77 1017 10 S/SE 7.4
Ieri h: 17:50 poco_nuvoloso Poco Nuvoloso 17 14 82 1017 10 S/SE 7.4
Ieri h: 17:20 nuvoloso Nuvoloso 17 13 77 1017 10 S/SE 7.4
Ieri h: 16:50 nuvoloso Nuvoloso 18 13 72 1017 10 SE 7.4
Ieri h: 16:20 nuvoloso Nuvoloso 19 13 68 1017 10 N 5.5
Ieri h: 15:50 nuvoloso Nuvoloso 19 14 72 1017 10 S 7.4
Ieri h: 15:20 nuvoloso Nuvoloso 19 13 68 1017 10 N 5.5
Ieri h: 14:50 nuvoloso Nuvoloso 19 12 63 1017 10 SO 7.4
Ieri h: 14:20 poco_nuvoloso Poco Nuvoloso 20 12 59 1017 10 S/SO 7.4
Ieri h: 13:50 poco_nuvoloso Poco Nuvoloso 20 13 64 1017 10 S/SO 7.4
Ieri h: 13:20 poco_nuvoloso Poco Nuvoloso 20 13 64 1017 10 S/SO 7.4
Ieri h: 12:50 poco_nuvoloso Poco Nuvoloso 19 13 68 1018 10 SO 9.3
Ieri h: 12:20 poco_nuvoloso Poco Nuvoloso 19 13 68 1018 10 O/SO 7.4
Ieri h: 11:50 poco_nuvoloso Poco Nuvoloso 18 12 67 1018 10 O 7.4
Ieri h: 11:20 poco_nuvoloso Poco Nuvoloso 18 13 72 1019 10 O/NO 9.3
Ieri h: 10:20 sereno Sereno 16 12 77 1019 10 NO 9.3
Ieri h: 09:50 sereno Sereno 15 12 82 1019 10 NO 9.3
Ieri h: 09:20 sereno Sereno 14 12 87 1019 10 O/NO 9.3
Ieri h: 08:50 sereno Sereno 13 12 93 1019 10 NO 9.3
Ieri h: 08:20 sereno Sereno 12 11 93 1019 10 N 5.5
Ieri h: 07:50 poco_nuvoloso Poco Nuvoloso 11 10 93 1019 10 N 5.5
Ieri h: 07:20 nuvoloso Nuvoloso 11 11 100 1019 10 N/NO 9.3
Ieri h: 06:50 nuvoloso Nuvoloso 12 11 93 1018 10 NO 9.3
Ieri h: 06:20 nuvoloso Nuvoloso 11 10 93 1018 10 N/NO 13
Ieri h: 05:50 sereno Sereno 11 11 100 1018 7 NO 9.3
Ieri h: 05:20 sereno Sereno 12 11 93 1019 10 NO 11.1
Ieri h: 04:50 sereno Sereno 11 11 100 1019 10 NO 9.3
Ieri h: 03:50 poco_nuvoloso Poco Nuvoloso 12 11 93 1019 10 N 7.4
Ieri h: 03:20 poco_nuvoloso Poco Nuvoloso 13 12 93 1019 10 NO 9.3
Ieri h: 02:50 poco_nuvoloso Poco Nuvoloso 12 11 93 1019 10 N 1.8
Ieri h: 02:20 sereno Sereno 12 11 93 1019 10 N/NO 7.4
Ieri h: 01:50 sereno Sereno 13 11 87 1019 10 N 7.4
Ieri h: 01:20 sereno Sereno 13 12 93 1019 10 NO 9.3
Ieri h: 00:50 sereno Sereno 13 12 93 1019 10 N/NO 9.3
Ieri h: 00:20 sereno Sereno 13 12 93 1019 10 N 9.3
Ieri h: 23:50 sereno Sereno 13 12 93 1019 10 N/NO 7.4